Tracking 19245 objects as of 18-Aug-2018
HD Live streaming from Space Station
objects crossing your sky now

CZ-3B DEB

Track CZ-3B DEB now!


NORAD ID: 42461
Int'l Code: 2010-042AC
Perigee: 1,303.3 km
Apogee: 43,457.7 km
Inclination: 22.6 °
Period: 808.6 minutes
Semi major axis: 28751 km
RCS: Unknown
Launch date: September 4, 2010
Source: People's Republic of China (PRC)
Launch site: Xichang Space Center, China (XSC)

Note: This is SATELLITE DEBRIS
aabbcc
Your satellite tracking list
Your tracking list is empty




NASA's NSSDC Master Catalog

Two Line Element Set (TLE):
1 42461U 10042AC  18229.31880023 -.00000140  00000-0  00000+0 0  9996
2 42461  22.6230 288.6236 7330833 249.9371  22.6538  1.78078776 28503
Source of the keplerian elements: AFSPC